START_TIME,STEP,MOV.,M15,t_acc.,M20,t_acc.
1980-11-16 03:00:32.500 ,4,0,0.,24.0,0.,24.0
1980-11-16 03:00:56.500 ,5,1,0.,24.0,0.,24.0
1980-11-16 03:01:20.500 ,5,0,0.,24.0,0.,24.0
1980-11-16 03:01:44.500 ,6,1,0.,24.0,0.,24.0
1980-11-16 03:02:08.500 ,6,0,0.,24.0,0.,24.0
1980-11-16 03:02:32.500 ,7,1,0.,24.0,0.,24.0
1980-11-16 03:02:56.500 ,7,0,0.,24.0,0.,24.0
1980-11-16 03:03:20.500 ,7,1,0.,24.0,0.,24.0
1980-11-16 03:03:44.500 ,7,0,0.,24.0,0.,24.0
1980-11-16 03:04:08.500 ,6,1,0.,24.0,0.,24.0
1980-11-16 03:04:32.500 ,6,0,0.,24.0,0.,24.0
1980-11-16 03:04:56.500 ,5,1,0.,24.0,0.,24.0
1980-11-16 03:05:20.500 ,5,0,0.,24.0,0.,24.0
1980-11-16 03:05:44.500 ,4,1,0.,24.0,0.,24.0
1980-11-16 03:06:08.500 ,4,0,0.,24.0,0.,24.0
1980-11-16 03:06:32.500 ,3,1,0.,24.0,0.,24.0
1980-11-16 03:06:56.500 ,3,0,0.,24.0,0.,24.0
1980-11-16 03:07:20.500 ,2,1,0.,24.0,0.,24.0
1980-11-16 03:07:44.500 ,2,0,0.,24.0,0.,24.0
1980-11-16 03:08:08.500 ,1,1,0.,24.0,0.,24.0
1980-11-16 03:08:32.500 ,1,0,0.,24.0,0.,24.0
1980-11-16 03:08:56.500 ,0,1,0.,24.0,0.,24.0
1980-11-16 03:09:20.500 ,0,0,0.,24.0,0.,24.0
1980-11-16 03:09:44.500 ,0,1,0.,24.0,0.,24.0
1980-11-16 03:10:08.500 ,0,0,0.,24.0,0.,24.0
1980-11-16 03:10:32.500 ,1,1,0.,24.0,0.,24.0
1980-11-16 03:10:56.500 ,1,0,0.,24.0,0.,24.0
1980-11-16 03:11:20.500 ,2,1,0.,24.0,0.,24.0
1980-11-16 03:11:44.500 ,2,0,0.,24.0,0.,24.0
1980-11-16 03:12:08.500 ,3,1,0.,24.0,0.,24.0
1980-11-16 03:12:32.500 ,3,0,0.,24.0,0.,24.0
1980-11-16 03:12:56.500 ,4,1,0.,24.0,0.,24.0
1980-11-16 03:13:20.500 ,4,0,0.,24.0,0.,24.0
1980-11-16 03:13:44.500 ,5,1,0.,24.0,0.,24.0
1980-11-16 03:14:08.500 ,5,0,0.,24.0,0.,24.0
1980-11-16 03:14:32.500 ,6,1,0.,24.0,0.,24.0
1980-11-16 03:14:56.500 ,6,0,0.,24.0,0.,24.0
1980-11-16 03:15:20.500 ,7,1,0.,24.0,0.,24.0
1980-11-16 03:15:44.500 ,7,0,0.,24.0,0.,24.0
1980-11-16 03:16:08.500 ,7,1,0.,24.0,0.,24.0
1980-11-16 03:16:32.500 ,7,0,0.,24.0,0.,24.0
1980-11-16 03:16:56.500 ,6,1,0.,24.0,0.,24.0
1980-11-16 03:17:20.500 ,6,0,0.,24.0,0.,24.0
1980-11-16 03:17:44.500 ,5,1,0.,24.0,0.,24.0
1980-11-16 03:18:08.500 ,5,0,0.,24.0,0.,24.0
1980-11-16 03:18:32.500 ,4,1,0.,24.0,0.,24.0
1980-11-16 03:18:56.500 ,4,0,0.,24.0,0.,24.0
1980-11-16 03:19:20.500 ,3,1,0.,24.0,0.,24.0
1980-11-16 03:19:44.500 ,3,0,0.,24.0,0.,24.0
1980-11-16 03:20:08.500 ,2,1,0.,24.0,0.,24.0
1980-11-16 03:20:32.500 ,2,0,0.,24.0,0.,24.0
1980-11-16 03:20:56.500 ,1,1,0.,24.0,0.,24.0
1980-11-16 03:21:20.500 ,1,0,0.,24.0,0.,24.0
1980-11-16 03:21:44.500 ,0,1,0.,24.0,0.,24.0
1980-11-16 03:22:08.500 ,0,0,0.,24.0,0.,24.0
1980-11-16 03:22:32.500 ,0,1,0.,24.0,0.,24.0
1980-11-16 03:22:56.500 ,0,0,0.,24.0,0.,24.0
1980-11-16 03:23:20.500 ,1,1,0.,24.0,0.,24.0
1980-11-16 03:23:44.500 ,1,0,0.,24.0,0.,24.0
1980-11-16 03:24:08.500 ,2,1,0.,24.0,0.,24.0
1980-11-16 03:24:32.500 ,2,0,0.,24.0,0.,24.0
1980-11-16 03:24:56.500 ,3,1,0.,24.0,0.,24.0
1980-11-16 03:25:20.500 ,3,0,0.,24.0,0.,24.0
1980-11-16 03:25:44.500 ,4,1,0.,24.0,0.,24.0
1980-11-16 03:26:08.500 ,4,0,0.,24.0,0.,24.0
1980-11-16 03:26:32.500 ,5,1,0.,24.0,0.,24.0
1980-11-16 03:26:56.500 ,5,0,0.,24.0,0.,24.0
1980-11-16 03:27:20.500 ,6,1,0.,24.0,0.,24.0
1980-11-16 03:27:44.500 ,6,0,0.,24.0,0.,24.0
1980-11-16 03:28:08.500 ,7,1,0.,24.0,0.,24.0
1980-11-16 03:28:32.500 ,7,0,0.,24.0,0.,24.0
1980-11-16 03:28:56.500 ,7,1,0.,24.0,0.,24.0
1980-11-16 03:29:20.500 ,7,0,0.,24.0,0.,24.0
1980-11-16 03:29:44.500 ,6,1,0.,24.0,0.,24.0
1980-11-16 03:30:08.500 ,6,0,0.,24.0,0.,24.0
1980-11-16 03:30:32.500 ,5,1,0.,24.0,0.,24.0
1980-11-16 03:30:56.500 ,5,0,0.,24.0,0.,24.0
1980-11-16 03:31:20.500 ,4,1,0.,24.0,0.,24.0
1980-11-16 03:31:44.500 ,4,0,0.,24.0,0.,24.0
1980-11-16 03:32:08.500 ,3,1,0.,24.0,0.,24.0
1980-11-16 03:32:32.500 ,3,0,0.,24.0,0.,24.0
1980-11-16 03:32:56.500 ,2,1,0.,24.0,0.,24.0
1980-11-16 03:33:20.500 ,2,0,0.,24.0,0.,24.0
1980-11-16 03:33:44.500 ,1,1,0.,24.0,0.,24.0
1980-11-16 03:34:08.500 ,1,0,0.,24.0,0.,24.0
1980-11-16 03:34:32.500 ,0,1,0.,24.0,0.,24.0
1980-11-16 03:34:56.500 ,0,0,0.,24.0,0.,24.0
1980-11-16 03:35:20.500 ,0,1,0.,24.0,0.,24.0
1980-11-16 03:35:44.500 ,0,0,0.,24.0,0.,24.0
1980-11-16 03:36:08.500 ,1,1,0.,24.0,0.,24.0
1980-11-16 03:36:32.500 ,1,0,0.,24.0,0.,24.0
1980-11-16 03:36:56.500 ,2,1,0.,24.0,0.,24.0
1980-11-16 03:37:20.500 ,2,0,0.,24.0,0.,24.0
1980-11-16 03:37:44.500 ,3,1,0.,24.0,0.,24.0
1980-11-16 03:38:08.500 ,3,0,0.,24.0,0.,24.0
1980-11-16 03:38:32.500 ,4,1,0.,24.0,0.,24.0
1980-11-16 03:38:56.500 ,4,0,0.,24.0,0.,24.0
1980-11-16 03:39:20.500 ,5,1,0.,24.0,0.,24.0
1980-11-16 03:39:44.500 ,5,0,0.,24.0,0.,24.0
1980-11-16 03:40:08.500 ,6,1,0.,24.0,0.,24.0
1980-11-16 03:40:32.500 ,6,0,0.,24.0,0.,24.0
1980-11-16 03:40:56.500 ,7,1,0.,24.0,0.,24.0
1980-11-16 03:41:20.500 ,7,0,0.,24.0,0.,24.0
1980-11-16 03:41:44.500 ,7,1,0.,24.0,0.,24.0
1980-11-16 03:42:08.500 ,7,0,0.,24.0,0.,24.0
1980-11-16 03:42:32.500 ,6,1,0.,24.0,0.,24.0
1980-11-16 03:42:56.500 ,6,0,0.,24.0,0.,24.0
1980-11-16 03:43:20.500 ,5,1,0.,24.0,0.,24.0
1980-11-16 03:43:44.500 ,5,0,0.,24.0,0.,24.0
1980-11-16 03:44:08.500 ,4,1,0.,24.0,0.,24.0
1980-11-16 03:44:32.500 ,4,0,0.,24.0,0.,24.0
1980-11-16 03:44:56.500 ,3,1,0.,24.0,0.,24.0
1980-11-16 03:45:20.500 ,3,0,0.,24.0,0.,24.0
1980-11-16 03:45:44.500 ,2,1,0.,24.0,0.,24.0
1980-11-16 03:46:08.500 ,2,0,0.,24.0,0.,24.0
1980-11-16 03:46:32.500 ,1,1,0.,24.0,0.,24.0
1980-11-16 03:46:56.500 ,1,0,0.,24.0,0.,24.0
1980-11-16 03:47:20.500 ,0,1,0.,24.0,0.,24.0
1980-11-16 03:47:44.500 ,0,0,0.,24.0,0.,24.0
1980-11-16 03:48:08.500 ,0,1,0.,24.0,0.,24.0
1980-11-16 03:48:32.500 ,0,0,0.,24.0,0.,24.0
1980-11-16 03:48:56.500 ,1,1,0.,24.0,0.,24.0
1980-11-16 03:49:20.500 ,1,0,0.,24.0,0.,24.0
1980-11-16 03:49:44.500 ,2,1,0.,24.0,0.,24.0
1980-11-16 03:50:08.500 ,2,0,0.,24.0,0.,24.0
1980-11-16 03:50:32.500 ,3,1,0.,24.0,0.,24.0
1980-11-16 03:50:56.500 ,3,0,0.,24.0,0.,24.0
1980-11-16 03:51:20.500 ,4,1,0.,24.0,0.,24.0
1980-11-16 03:51:44.500 ,4,0,0.,24.0,0.,24.0
1980-11-16 03:52:08.500 ,5,1,0.,24.0,0.,24.0
1980-11-16 03:52:32.500 ,5,0,0.,24.0,0.,24.0
1980-11-16 03:52:56.500 ,6,1,0.,24.0,0.,24.0
1980-11-16 03:53:20.500 ,6,0,0.,24.0,0.,24.0
1980-11-16 03:53:44.500 ,7,1,0.,24.0,0.,24.0
1980-11-16 03:54:08.500 ,7,0,0.,24.0,0.,24.0
1980-11-16 03:54:32.500 ,7,1,0.,24.0,0.,24.0
1980-11-16 03:54:56.500 ,7,0,0.,24.0,0.,24.0
1980-11-16 03:55:20.500 ,6,1,0.,24.0,0.,24.0
1980-11-16 03:55:44.500 ,6,0,0.,24.0,0.,24.0
1980-11-16 03:56:08.500 ,5,1,0.,24.0,0.,24.0
1980-11-16 03:56:32.500 ,5,0,0.,24.0,0.,24.0
1980-11-16 03:56:56.500 ,4,1,0.,24.0,0.,24.0
1980-11-16 03:57:20.500 ,4,0,0.,24.0,0.,24.0
1980-11-16 03:57:44.500 ,3,1,0.,24.0,0.,24.0
1980-11-16 03:58:08.500 ,3,0,0.,24.0,0.,24.0
1980-11-16 03:58:32.500 ,2,1,0.,24.0,0.,24.0
1980-11-16 03:58:56.500 ,2,0,0.,24.0,0.,24.0
1980-11-16 03:59:20.500 ,1,1,0.,24.0,0.,24.0
1980-11-16 03:59:44.500 ,1,0,0.,24.0,0.,24.0
1980-11-16 04:00:08.500 ,0,1,0.,24.0,0.,24.0
1980-11-16 04:00:32.500 ,0,0,0.,24.0,0.,24.0
1980-11-16 04:00:56.500 ,0,1,0.,24.0,0.,24.0
1980-11-16 04:01:20.500 ,0,0,0.,24.0,0.,24.0
1980-11-16 04:01:44.500 ,1,1,0.,24.0,0.,24.0
1980-11-16 04:02:08.500 ,1,0,0.,24.0,0.,24.0
1980-11-16 04:02:32.500 ,2,1,0.,24.0,0.,24.0
1980-11-16 04:02:56.500 ,2,0,0.,24.0,0.,24.0
1980-11-16 04:03:20.500 ,3,1,0.,24.0,0.,24.0
1980-11-16 04:03:44.500 ,3,0,0.,24.0,0.,24.0
1980-11-16 04:04:08.500 ,4,1,0.,24.0,0.,24.0
1980-11-16 04:04:32.500 ,4,0,0.,24.0,0.,24.0
1980-11-16 04:04:56.500 ,5,1,0.,24.0,0.,24.0
1980-11-16 04:05:20.500 ,5,0,0.,24.0,0.,24.0
1980-11-16 04:05:44.500 ,6,1,0.,24.0,0.,24.0
1980-11-16 04:06:08.500 ,6,0,0.,24.0,0.,24.0
1980-11-16 04:06:32.500 ,7,1,0.,24.0,0.,24.0
1980-11-16 04:06:56.500 ,7,0,0.,24.0,0.,24.0
1980-11-16 04:07:20.500 ,7,1,0.,24.0,0.,24.0
1980-11-16 04:07:44.500 ,7,0,0.,24.0,0.,24.0
1980-11-16 04:08:08.500 ,6,1,0.,24.0,0.,24.0
1980-11-16 04:08:32.500 ,6,0,0.,24.0,0.,24.0
1980-11-16 04:08:56.500 ,5,1,0.,24.0,0.,24.0
1980-11-16 04:09:20.500 ,5,0,0.,24.0,0.,24.0
1980-11-16 04:09:44.500 ,4,1,0.,24.0,0.,24.0
1980-11-16 04:10:08.500 ,4,0,0.,24.0,0.,24.0
1980-11-16 04:10:32.500 ,3,1,0.,24.0,0.,24.0
1980-11-16 04:10:56.500 ,3,0,0.,24.0,0.,24.0
1980-11-16 04:11:20.500 ,2,1,0.,24.0,0.,24.0
1980-11-16 04:11:44.500 ,2,0,0.,24.0,0.,24.0
1980-11-16 04:12:56.500 ,0,0,0.,24.0,0.,24.0
1980-11-16 04:13:20.500 ,0,0,0.,24.0,0.,24.0
1980-11-16 04:13:44.500 ,0,1,0.,24.0,0.,24.0
1980-11-16 04:14:08.500 ,0,0,0.,24.0,0.,24.0
1980-11-16 04:14:32.500 ,1,1,0.,24.0,0.,24.0
1980-11-16 04:14:56.500 ,1,0,0.,24.0,0.,24.0
1980-11-16 04:15:20.500 ,2,1,0.,24.0,0.,24.0
1980-11-16 04:15:44.500 ,2,0,0.,24.0,0.,24.0
1980-11-16 04:16:08.500 ,3,1,0.,24.0,0.,24.0
1980-11-16 04:16:32.500 ,3,0,0.,24.0,0.,24.0
1980-11-16 04:16:56.500 ,4,1,0.,24.0,0.,24.0
1980-11-16 04:17:20.500 ,4,0,0.,24.0,0.,24.0
1980-11-16 04:17:44.500 ,5,1,0.,24.0,0.,24.0
1980-11-16 04:18:08.500 ,5,0,0.,24.0,0.,24.0
1980-11-16 04:18:32.500 ,6,1,0.,24.0,0.,24.0
1980-11-16 04:18:56.500 ,6,0,0.,24.0,0.,24.0
1980-11-16 04:19:20.500 ,7,1,0.,24.0,0.,24.0
1980-11-16 04:19:44.500 ,7,0,0.,24.0,0.,24.0
1980-11-16 04:20:08.500 ,7,1,0.,24.0,0.,24.0
1980-11-16 04:20:32.500 ,7,0,0.,24.0,0.,24.0
1980-11-16 04:20:56.500 ,6,1,0.,24.0,0.,24.0
1980-11-16 04:21:20.500 ,6,0,0.,24.0,0.,24.0
1980-11-16 04:21:44.500 ,5,1,0.,24.0,0.,24.0
1980-11-16 04:22:08.500 ,5,0,0.,24.0,0.,24.0
1980-11-16 04:22:32.500 ,4,1,0.,24.0,0.,24.0
1980-11-16 04:22:56.500 ,4,0,0.,24.0,0.,24.0
1980-11-16 04:23:20.500 ,3,1,0.,24.0,0.,24.0
1980-11-16 04:23:44.500 ,3,0,0.,24.0,0.,24.0
1980-11-16 04:24:08.500 ,2,1,0.,24.0,0.,24.0
1980-11-16 04:24:32.500 ,2,0,0.,24.0,0.,24.0
1980-11-16 04:24:56.500 ,1,1,0.,24.0,0.,24.0
1980-11-16 04:25:20.500 ,1,0,0.,24.0,0.,24.0
1980-11-16 04:25:44.500 ,0,1,0.,24.0,0.,24.0
1980-11-16 04:26:08.500 ,0,0,0.,24.0,0.,24.0
1980-11-16 04:26:32.500 ,0,1,0.,24.0,0.,24.0
1980-11-16 04:26:56.500 ,0,0,0.,24.0,0.,24.0
1980-11-16 04:27:20.500 ,1,1,0.,24.0,0.,24.0
1980-11-16 04:27:44.500 ,1,0,0.,24.0,0.,24.0
1980-11-16 04:28:08.500 ,2,1,0.,24.0,0.,24.0
1980-11-16 04:28:32.500 ,2,0,0.,24.0,0.,24.0
1980-11-16 04:28:56.500 ,3,1,0.,24.0,0.,24.0
1980-11-16 04:29:20.500 ,3,0,0.,24.0,0.,24.0
1980-11-16 04:29:44.500 ,4,1,0.,24.0,0.,24.0
1980-11-16 04:30:08.500 ,4,0,0.,24.0,0.,24.0
1980-11-16 04:30:32.500 ,5,1,0.,24.0,0.,24.0
1980-11-16 04:30:56.500 ,5,0,0.,24.0,0.,24.0
1980-11-16 04:31:20.500 ,6,1,0.,24.0,0.,24.0
1980-11-16 04:31:44.500 ,6,0,0.,24.0,0.,24.0
1980-11-16 04:32:08.500 ,7,1,0.,24.0,0.,24.0
1980-11-16 04:32:32.500 ,7,0,0.,24.0,0.,24.0
1980-11-16 04:32:56.500 ,7,1,0.,24.0,0.,24.0
1980-11-16 04:33:20.500 ,7,0,0.,24.0,0.,24.0
1980-11-16 04:33:44.500 ,6,1,0.,24.0,0.,24.0
1980-11-16 04:34:08.500 ,6,0,0.,24.0,0.,24.0
1980-11-16 04:34:32.500 ,5,1,0.,24.0,0.,24.0
1980-11-16 04:34:56.500 ,5,0,0.,24.0,0.,24.0
1980-11-16 04:35:20.500 ,4,1,0.,24.0,0.,24.0
1980-11-16 04:35:44.500 ,4,0,0.,24.0,0.,24.0
1980-11-16 04:36:08.500 ,3,1,0.,24.0,0.,24.0
1980-11-16 04:36:32.500 ,3,0,0.,24.0,0.,24.0
1980-11-16 04:36:56.500 ,2,1,0.,24.0,0.,24.0
1980-11-16 04:37:20.500 ,2,0,0.,24.0,0.,24.0
1980-11-16 04:37:44.500 ,1,1,0.,24.0,0.,24.0
1980-11-16 04:38:08.500 ,1,0,0.,24.0,0.,24.0
1980-11-16 04:38:32.500 ,0,1,0.,24.0,0.,24.0
1980-11-16 04:38:56.500 ,0,0,0.,24.0,0.,24.0
1980-11-16 04:39:20.500 ,0,1,0.,24.0,0.,24.0
1980-11-16 04:39:44.500 ,0,0,0.,24.0,0.,24.0
1980-11-16 04:40:08.500 ,1,1,0.,24.0,0.,24.0
1980-11-16 04:40:32.500 ,1,0,0.,24.0,0.,24.0
1980-11-16 04:40:56.500 ,2,1,0.,24.0,0.,24.0
1980-11-16 04:41:20.500 ,2,0,0.,24.0,0.,24.0
1980-11-16 04:41:44.500 ,3,1,0.,24.0,0.,24.0
1980-11-16 04:42:08.500 ,3,0,0.,24.0,0.,24.0
1980-11-16 04:42:32.500 ,4,1,0.,24.0,0.,24.0
1980-11-16 04:42:56.500 ,4,0,0.,24.0,0.,24.0
1980-11-16 04:43:20.500 ,5,1,0.,24.0,0.,24.0
1980-11-16 04:43:44.500 ,5,0,0.,24.0,0.,24.0
1980-11-16 04:44:08.500 ,6,1,0.,24.0,0.,24.0
1980-11-16 04:44:32.500 ,6,0,0.,24.0,0.,24.0
1980-11-16 04:44:56.500 ,7,1,0.,24.0,0.,24.0
1980-11-16 04:45:20.500 ,7,0,0.,24.0,0.,24.0
1980-11-16 04:45:44.500 ,7,1,0.,24.0,0.,24.0
1980-11-16 04:46:08.500 ,7,0,0.,24.0,0.,24.0
1980-11-16 04:46:32.500 ,6,1,0.,24.0,0.,24.0
1980-11-16 04:46:56.500 ,6,0,0.,24.0,0.,24.0
1980-11-16 04:47:20.500 ,5,1,0.,24.0,0.,24.0
1980-11-16 04:47:44.500 ,5,0,0.,24.0,0.,24.0
1980-11-16 04:48:08.500 ,4,1,0.,24.0,0.,24.0
1980-11-16 04:48:32.500 ,4,0,0.,24.0,0.,24.0
1980-11-16 04:48:56.500 ,3,1,0.,24.0,0.,24.0
1980-11-16 04:49:20.500 ,3,0,0.,24.0,0.,24.0
1980-11-16 04:49:44.500 ,2,1,0.,24.0,0.,24.0
1980-11-16 04:50:08.500 ,2,0,0.,24.0,0.,24.0
1980-11-16 04:50:32.500 ,1,1,0.,24.0,0.,24.0
1980-11-16 04:50:56.500 ,1,0,0.,24.0,0.,24.0
1980-11-16 04:51:20.500 ,0,1,0.,24.0,0.,24.0
1980-11-16 04:51:44.500 ,0,0,0.,24.0,0.,24.0
1980-11-16 04:52:08.500 ,0,1,0.,24.0,0.,24.0
1980-11-16 04:52:32.500 ,0,0,0.,24.0,0.,24.0
1980-11-16 04:52:56.500 ,1,1,0.,24.0,0.,24.0
1980-11-16 04:53:20.500 ,1,0,0.,24.0,0.,24.0
1980-11-16 04:53:44.500 ,2,1,0.,24.0,0.,24.0
1980-11-16 04:54:08.500 ,2,0,0.,24.0,0.,24.0
1980-11-16 04:54:32.500 ,3,1,0.,24.0,0.,24.0
1980-11-16 04:54:56.500 ,3,0,0.,24.0,0.,24.0
1980-11-16 04:55:20.500 ,4,1,0.,24.0,0.,24.0
1980-11-16 04:55:44.500 ,4,0,0.,24.0,0.,24.0
1980-11-16 04:56:08.500 ,5,1,0.,24.0,0.,24.0
1980-11-16 04:56:32.500 ,5,0,0.,24.0,0.,24.0
1980-11-16 04:56:56.500 ,6,1,0.,24.0,0.,24.0
1980-11-16 04:57:20.500 ,6,0,0.,24.0,0.,24.0
1980-11-16 04:57:44.500 ,7,1,0.,24.0,0.,24.0
1980-11-16 04:58:08.500 ,7,0,0.,24.0,0.,24.0
1980-11-16 04:58:32.500 ,7,1,0.,24.0,0.,24.0
1980-11-16 04:58:56.500 ,7,0,0.,24.0,0.,24.0
1980-11-16 04:59:20.500 ,6,1,0.,24.0,0.,24.0
1980-11-16 04:59:44.500 ,6,0,0.,24.0,0.,24.0
1980-11-16 05:00:08.500 ,5,1,0.,24.0,0.,24.0
1980-11-16 05:00:32.500 ,5,0,0.,24.0,0.,24.0
1980-11-16 05:00:56.500 ,4,1,0.,24.0,0.,24.0
1980-11-16 05:01:20.500 ,4,0,0.,24.0,0.,24.0
1980-11-16 05:01:44.500 ,3,1,0.,24.0,0.,24.0
1980-11-16 05:02:08.500 ,3,0,0.,24.0,0.,24.0
1980-11-16 05:02:32.500 ,2,1,0.,24.0,0.,24.0
1980-11-16 05:02:56.500 ,2,0,0.,24.0,0.,24.0
1980-11-16 05:03:20.500 ,1,1,0.,24.0,0.,24.0
1980-11-16 05:03:44.500 ,1,0,0.,24.0,0.,24.0
1980-11-16 05:04:08.500 ,0,1,0.,24.0,0.,24.0
1980-11-16 05:04:32.500 ,0,0,0.,24.0,0.,24.0
1980-11-16 05:05:44.500 ,0,0,0.,24.0,0.,24.0
1980-11-16 05:06:08.500 ,0,0,0.,24.0,0.,24.0
1980-11-16 05:06:32.500 ,2,1,0.,24.0,0.,24.0
1980-11-16 05:06:56.500 ,2,0,0.,24.0,0.,24.0
1980-11-16 05:07:20.500 ,3,1,0.,24.0,0.,24.0
1980-11-16 05:07:44.500 ,3,0,0.,24.0,0.,24.0
1980-11-16 05:08:08.500 ,4,1,0.,24.0,0.,24.0
1980-11-16 05:08:32.500 ,4,0,0.,24.0,0.,24.0
1980-11-16 05:08:56.500 ,5,1,0.,24.0,0.,24.0
1980-11-16 05:09:20.500 ,5,0,0.,24.0,0.,24.0
1980-11-16 05:09:44.500 ,6,1,0.,24.0,0.,24.0
1980-11-16 05:10:08.500 ,6,0,0.,24.0,0.,24.0
1980-11-16 05:10:32.500 ,7,1,0.,24.0,0.,24.0
1980-11-16 05:10:56.500 ,7,0,0.,24.0,0.,24.0
1980-11-16 05:11:20.500 ,7,1,0.,24.0,0.,24.0
1980-11-16 05:11:44.500 ,7,0,0.,24.0,0.,24.0
1980-11-16 05:12:08.500 ,6,1,0.,24.0,0.,24.0
1980-11-16 05:12:32.500 ,6,0,0.,24.0,0.,24.0
1980-11-16 05:12:56.500 ,5,1,0.,24.0,0.,24.0
1980-11-16 05:13:20.500 ,0,0,0.,24.0,0.,24.0
1980-11-16 05:14:01.300 ,0,0,0.,24.0,0.,24.0
1980-11-16 05:14:08.500 ,0,0,0.,24.0,0.,24.0
1980-11-16 05:14:32.500 ,3,1,0.,24.0,0.,24.0
1980-11-16 05:14:56.500 ,3,0,0.,24.0,0.,24.0
1980-11-16 05:15:20.500 ,2,1,0.,24.0,0.,24.0
1980-11-16 05:15:44.500 ,2,0,0.,24.0,0.,24.0
1980-11-16 05:16:08.500 ,1,1,0.,24.0,0.,24.0
1980-11-16 05:16:32.500 ,1,0,0.,24.0,0.,24.0
1980-11-16 05:16:56.500 ,0,1,0.,24.0,0.,24.0
1980-11-16 05:17:20.500 ,0,0,0.,24.0,0.,24.0
1980-11-16 05:17:44.500 ,0,1,0.,24.0,0.,24.0
1980-11-16 05:18:08.500 ,0,0,0.,24.0,0.,24.0
1980-11-16 05:18:32.500 ,1,1,0.,24.0,0.,24.0
1980-11-16 05:18:56.500 ,1,0,0.,24.0,0.,24.0
1980-11-16 05:19:20.500 ,2,1,0.,24.0,0.,24.0
1980-11-16 05:19:44.500 ,2,0,0.,24.0,0.,24.0
1980-11-16 05:20:08.500 ,0,0,0.,24.0,0.,24.0
1980-11-16 05:20:32.500 ,0,0,0.,24.0,0.,24.0
1980-11-16 05:20:56.500 ,4,1,0.,24.0,0.,24.0
1980-11-16 05:21:20.500 ,4,0,0.,24.0,0.,24.0
1980-11-16 05:21:44.500 ,5,1,0.,24.0,0.,24.0
1980-11-16 05:22:08.500 ,5,0,0.,24.0,0.,24.0
1980-11-16 05:22:32.500 ,6,1,0.,24.0,0.,24.0
1980-11-16 05:22:56.500 ,6,0,0.,24.0,0.,24.0
1980-11-16 05:23:20.500 ,7,1,0.,24.0,0.,24.0
1980-11-16 05:23:44.500 ,7,0,0.,24.0,0.,24.0
1980-11-16 05:24:08.500 ,7,1,0.,24.0,0.,24.0
1980-11-16 05:24:32.500 ,7,0,0.,24.0,0.,24.0
1980-11-16 05:24:56.500 ,6,1,0.,24.0,0.,24.0
1980-11-16 05:25:20.500 ,6,0,0.,24.0,0.,24.0
1980-11-16 05:25:44.500 ,5,1,0.,24.0,0.,24.0
1980-11-16 05:26:08.500 ,5,0,0.,24.0,0.,24.0
1980-11-16 05:26:32.500 ,4,1,0.,24.0,0.,24.0
1980-11-16 05:26:56.500 ,4,0,0.,24.0,0.,24.0
1980-11-16 05:27:20.500 ,3,1,0.,24.0,0.,24.0
1980-11-16 05:27:44.500 ,3,0,0.,24.0,0.,24.0
1980-11-16 05:28:08.500 ,2,1,0.,24.0,0.,24.0
1980-11-16 05:28:32.500 ,2,0,0.,24.0,0.,24.0
1980-11-16 05:28:56.500 ,1,1,0.,24.0,0.,24.0
1980-11-16 05:29:20.500 ,1,0,0.,24.0,0.,24.0
1980-11-16 05:29:44.500 ,0,1,0.,24.0,0.,24.0
1980-11-16 05:30:08.500 ,0,0,0.,24.0,0.,24.0
1980-11-16 05:30:32.500 ,0,1,0.,24.0,0.,24.0
1980-11-16 05:30:56.500 ,0,0,0.,24.0,0.,24.0
1980-11-16 05:31:20.500 ,1,1,0.,24.0,0.,24.0
1980-11-16 05:31:44.500 ,1,0,0.,24.0,0.,24.0
1980-11-16 05:32:08.500 ,2,1,0.,24.0,0.,24.0
1980-11-16 05:32:32.500 ,2,0,0.,24.0,0.,24.0
1980-11-16 05:32:56.500 ,3,1,0.,24.0,0.,24.0
1980-11-16 05:33:20.500 ,3,0,0.,24.0,0.,24.0
1980-11-16 05:36:56.500 ,0,0,0.,24.0,0.,24.0
1980-11-16 05:37:20.500 ,0,0,0.,24.0,0.,24.0
1980-11-16 05:37:44.500 ,6,1,0.,24.0,0.,24.0
1980-11-16 05:38:08.500 ,6,0,0.,24.0,0.,24.0
1980-11-16 05:38:32.500 ,5,1,0.,24.0,0.,24.0
1980-11-16 05:38:56.500 ,5,0,0.,24.0,0.,24.0
1980-11-16 05:39:20.500 ,4,1,0.,24.0,0.,24.0
1980-11-16 05:39:44.500 ,4,0,0.,24.0,0.,24.0
1980-11-16 05:40:08.500 ,3,1,0.,24.0,0.,24.0
1980-11-16 05:40:32.500 ,3,0,0.,24.0,0.,24.0
1980-11-16 05:40:56.500 ,2,1,0.,24.0,0.,24.0
1980-11-16 05:41:20.500 ,2,0,0.,24.0,0.,24.0
1980-11-16 05:41:44.500 ,1,1,0.,24.0,0.,24.0
1980-11-16 05:42:08.500 ,1,0,0.,24.0,0.,24.0
1980-11-16 05:42:32.500 ,0,1,0.,24.0,0.,24.0
1980-11-16 05:42:56.500 ,0,0,0.,24.0,0.,24.0
1980-11-16 05:43:20.500 ,0,1,0.,24.0,0.,24.0
1980-11-16 05:43:44.500 ,0,0,0.,24.0,0.,24.0
1980-11-16 05:44:08.500 ,1,1,0.,24.0,0.,24.0
1980-11-16 05:44:32.500 ,1,0,0.,24.0,0.,24.0
1980-11-16 05:44:56.500 ,2,1,0.,24.0,0.,24.0
1980-11-16 05:45:20.500 ,2,0,0.,24.0,0.,24.0
1980-11-16 05:45:44.500 ,3,1,0.,24.0,0.,24.0
1980-11-16 05:46:08.500 ,3,0,0.,24.0,0.,24.0
1980-11-16 05:46:32.500 ,4,1,0.,24.0,0.,24.0
1980-11-16 05:46:56.500 ,4,0,1.,24.0,0.,24.0
1980-11-16 05:47:20.500 ,5,1,0.,24.0,0.,24.0
1980-11-16 05:47:44.500 ,5,0,0.,24.0,0.,24.0
1980-11-16 05:48:08.500 ,6,1,0.,24.0,0.,24.0
1980-11-16 05:48:32.500 ,6,0,0.,24.0,0.,24.0
1980-11-16 05:48:56.500 ,7,1,0.,24.0,0.,24.0
1980-11-16 05:49:20.500 ,7,0,0.,24.0,0.,24.0
1980-11-16 05:49:44.500 ,7,1,0.,24.0,0.,24.0
1980-11-16 05:50:08.500 ,7,0,0.,24.0,0.,24.0
1980-11-16 05:50:32.500 ,6,1,0.,24.0,0.,24.0
1980-11-16 05:50:56.500 ,6,0,0.,24.0,0.,24.0
1980-11-16 05:51:20.500 ,5,1,0.,24.0,0.,24.0
1980-11-16 05:51:44.500 ,5,0,0.,24.0,0.,24.0
1980-11-16 05:52:08.500 ,4,1,0.,24.0,0.,24.0
1980-11-16 05:52:32.500 ,4,0,0.,24.0,0.,24.0
1980-11-16 05:52:56.500 ,3,1,0.,24.0,0.,24.0
1980-11-16 05:53:20.500 ,0,0,0.,24.0,0.,24.0
1980-11-16 05:54:45.100 ,0,0,0.,24.0,0.,24.0
1980-11-16 05:54:56.500 ,0,0,0.,24.0,0.,24.0
1980-11-16 05:55:20.500 ,0,1,0.,24.0,0.,24.0
1980-11-16 05:55:44.500 ,0,0,0.,24.0,0.,24.0
1980-11-16 05:56:08.500 ,0,1,0.,24.0,0.,24.0
1980-11-16 05:56:32.500 ,0,0,0.,24.0,0.,24.0
1980-11-16 05:56:56.500 ,1,1,0.,24.0,0.,24.0
1980-11-16 05:57:20.500 ,1,0,0.,24.0,0.,24.0
1980-11-16 05:57:44.500 ,2,1,0.,24.0,0.,24.0
1980-11-16 05:58:08.500 ,2,0,0.,24.0,0.,24.0
1980-11-16 05:58:32.500 ,3,1,0.,24.0,0.,24.0
1980-11-16 05:58:56.500 ,3,0,0.,24.0,0.,24.0
1980-11-16 05:59:20.500 ,4,1,0.,24.0,0.,24.0
1980-11-16 05:59:44.500 ,4,0,0.,24.0,0.,24.0
1980-11-16 06:00:08.500 ,5,1,0.,24.0,0.,24.0
